Regional Weather Roundup
Issued by NWS

Home | Current Version | Previous Version | Text Only | Print | Product List | Glossary On
Versions: 1 2 3 4 5 6 7 8 9 10 11 12 13 14 15 16 17 18 19 20 21 22 23 24 25 26 27 28 29 30 31 32 33 34 35 36 37 38 39 40 41 42 43 44 45 46 47 48 49 50
000
ASUS45 KBOU 040007
RWRCO

WEATHER ROUNDUP FOR COLORADO
NATIONAL WEATHER SERVICE DENVER/BOULDER CO
500 PM MST SAT DEC 03 2016

NOTE: "FAIR" INDICATES FEW OR NO CLOUDS BELOW 12000 FEET WITH NO
SIGNIFICANT WEATHER AND/OR OBSTRUCTIONS TO VISIBILITY.

COZ001>005-013-030-031-040100-
...NORTHWEST COLORADO...

CITY           SKY/WX    TMP DP  RH WIND       PRES   REMARKS
CRAIG          CLOUDY    27  16  63 SE3       30.13S
HAYDEN         MOCLDY    25  10  54 SE3       30.12R
MEEKER         CLOUDY    24  14  65 CALM      30.13R
MOUNT WERNER   NOT AVBL
STEAMBOAT SPGS CLOUDY    22  15  75 E6        30.11S WCI  14
WALDEN           N/A     18   9  68 SW13      30.05R WCI   4
$$

COZ006>008-011-040100-
...WEST CENTRAL VALLEYS...

CITY           SKY/WX    TMP DP  RH WIND       PRES   REMARKS
GRAND JUNCTION FAIR      31  17  56 NW8       30.16R WCI  23
MONTROSE       FAIR      33  16  49 CALM      30.14F
EAGLE          CLOUDY    28  12  50 SW12      30.12R WCI  18
RIFLE          FAIR      28  18  66 SE6       30.15S WCI  22
DELTA          FAIR      37  20  50 E6        30.14R
NUCLA          FAIR      34   9  35 NW5       30.14S WCI  30
$$

COZ017>023-064>068-040100-
...SOUTHWEST COLORADO...

CITY           SKY/WX    TMP DP  RH WIND       PRES   REMARKS
DURANGO        FAIR      32  23  69 S8        30.02F WCI  25
CORTEZ         FAIR      36  11  35 N10       30.06F
PAGOSA SPRINGS FAIR      32  24  71 SW8       30.02S WCI  25
TELLURIDE      FAIR      22   8  55 W3        30.08R
WOLF CREEK PAS FOG       14  14 100 SW7       30.05F VSB<1/4 WCI   4
$$

COZ009-010-012-014-032>034-037-058>063-040100-
...CENTRAL COLORADO...

CITY           SKY/WX    TMP DP  RH WIND       PRES   REMARKS
ASPEN          CLOUDY    24  12  60 N3        30.08R
BUENA VISTA    FAIR      27   7  42 NW15G24   30.00R WCI  15
COPPER MTN     LGT SNOW  12   5  73 MISG      29.98R
BERTHOUD PASS  CLOUDY     1  -9  60 NW33G40   29.88S WCI -25
COTTONWOOD PAS FAIR      27   9  46 W12G28    29.98R WCI  16
GUNNISON       MOCLDY    28  13  53 W8        30.06R WCI  20
KREMMLING      CLOUDY    28  18  64 CALM      30.09S
LEADVILLE      FAIR      12   3  67 N5        30.01R WCI   4
MONARCH PASS     N/A     10   7  85 W20G37    30.06R WCI  -8
SALIDA         FAIR      32  11  42 W9        30.07R WCI  24
SUNLIGHT       FAIR      10   7  85 SW7       30.08F WCI   0
WILKERSON PASS MOCLDY    14   5  67 N8        29.99R WCI   3
$$

COZ069>075-040100-
...SAN LUIS VALLEY/SANGRE DE CRISTO MOUNTAINS...

CITY           SKY/WX    TMP DP  RH WIND       PRES   REMARKS
ALAMOSA        FAIR      20  16  84 W7        30.01S WCI  11
LA VETA PASS   CLOUDY    18  14  86 NE24G30   29.95F FOG     WCI   0
SAGUACHE       FAIR      28   7  40 NW8       30.01S WCI  20
$$

COZ035-036-038>040-040100-
...NORTHERN COLORADO FRONT RANGE...

CITY           SKY/WX    TMP DP  RH WIND       PRES   REMARKS
DENVER INTL AP FAIR      31  19  61 NE6       29.98R WCI  25
DMNS CITY PARK   N/A     36  13  39 N7        29.98R
AURORA         PTCLDY    33  11  41 NE5       29.98R WCI  28
FRONT RANGE AP MOCLDY    32  21  64 NE5       29.99  WCI  27
ERIE MUNI ARPT FAIR      32  10  39 W7        29.98R WCI  26
BOULDER MUN AP FAIR      36   9  32 W14G20    29.97R
CENTENNIAL     MOCLDY    35  11  36 NE3       29.97R
BROOMFIELD     PTCLDY    37   7  28 W8        29.98R
FORT COLLINS   FAIR      34  16  47 CALM      29.99R
LONGMONT       FAIR      34  11  38 W5        30.00R WCI  30
$$

COZ041-046-047-076>085-087-088-040100-
...PIKES PEAK/PALMER DIVIDE AND SOUTHERN FOOTHILLS...

CITY           SKY/WX    TMP DP  RH WIND       PRES   REMARKS
COLO. SPRINGS  MOCLDY    38   7  27 N6        29.96R
A. F. ACADEMY  FAIR      32   8  36 N7        29.95R WCI  25
SCHRIEVER AFB  NOT AVBL
ELLICOTT       FAIR     N/A N/A N/A E12       29.94S
FALCON         FAIR      31   8  38 N8        29.97R WCI  23
FORT CARSON    FAIR      38  16  41 S3        29.94R
LIMON          CLOUDY    32  14  47 N8        29.97R WCI  25
MONUMENT HILL  CLOUDY    30   7  37 NE3       29.98R
TRINIDAD       FAIR      38  18  44 NE7       29.94R
$$

COZ042>045-048>051-090-091-040100-
...NORTHEAST COLORADO...

CITY           SKY/WX    TMP DP  RH WIND       PRES   REMARKS
GREELEY ARPT   FAIR      31  19  61 SE3       30.00R
AKRON          FAIR      29  17  61 W9        29.97R WCI  20
BURLINGTON     FAIR      33  22  63 S9        29.96S WCI  25
WRAY           NOT AVBL
STERLING       FAIR      32  14  47 NW9       29.97R WCI  24
HOLYOKE        FAIR      37  18  44 W6        29.97R
FORT MORGAN    FAIR      28  17  61 NW8       29.99R WCI  20
$$

COZ086-089-092>099-040100-
...SOUTHEAST COLORADO...

CITY           SKY/WX    TMP DP  RH WIND       PRES   REMARKS
PUEBLO         FAIR      36  18  48 SE3       29.95R
LA JUNTA       FAIR      35  21  56 N8        29.95R WCI  29
LAMAR          MIX PCPN  34  27  75 NE8       29.96R WCI  27
SPRINGFIELD      N/A     30  27  88 S8        29.93S WCI  22
$$



USA.gov is the U.S. government's official web portal to all federal, state and local government web resources and services.